Weather History for Acapulco, Mexico

Change the Weather History Date:

Tuesday, January 8, 2013

  Actual Average Record
Temperature  
Mean Temperature 82 °F -  
Max Temperature 91 °F 88 °F 91 °F (2005)
Min Temperature 73 °F 70 °F 66 °F (1998)
Cooling Degree Days 17    
Growing Degree Days 32 (Base 50)    
Moisture  
Dew Point 73 °F    
Average Humidity 72    
Maximum Humidity 88    
Minimum Humidity 52    
Precipitation  
Precipitation 0.00 in 0.01 in - ()
Sea Level Pressure  
Sea Level Pressure 29.83 in    
Wind  
Wind Speed 2 mph ()    
Max Wind Speed 9 mph    
Max Gust Speed -    
Visibility 8.6 miles    
Events      
Averages and records for this station are not official NWS values.
T = Trace of Precipitation, MM = Missing Value Source: Averaged Metar Reports

Daily Weather History Graph

Daily Weather History Graph

Search for Another Location

Airport:

Trip Planner

Search our weather history database for the weather conditions in past years. The results will help you decide how hot, cold, wet, or windy it might be!

Date:

Astronomy

Jan. 08, 2013 Rise Set
Actual Time 7:10 AM CST 6:21 PM CST
Civil Twilight 6:46 AM CST 6:45 PM CST
Nautical Twilight 6:20 AM CST 7:11 PM CST
Astronomical Twilight 5:53 AM CST 7:38 PM CST
Moon 3:48 AM CST (1/8) 3:24 PM CST (1/8)
Length of Visible Light 11h 58m
Length of Day
11h 11m
Waning Crescent, 13% of the Moon is Illuminated
Jan 8
Waning Crescent
Jan 11
New
Jan 18
First Quarter
Jan 26
Full
Feb 3
Last Quarter

Hourly Weather History & Observations

Time (CST) Temp. Heat Index Dew Point Humidity Pressure Visibility Wind Dir Wind Speed Gust Speed Precip Events Conditions
12:42 AM 78.8 °F - 73.4 °F 83% 29.82 in 8.0 mi Calm Calm - N/A   Clear
1:47 AM 78.8 °F - 73.4 °F 83% 29.82 in 8.0 mi Calm Calm - N/A   Clear
2:45 AM 75 °F - 69 °F 75% 29.80 in 6 mi West 4.5 mph - -  
2:47 AM 78.8 °F - 73.4 °F 83% 29.80 in 8.0 mi Calm Calm - N/A   Clear
4:00 AM 77.0 °F - 71.6 °F 83% 29.82 in 8.0 mi Calm Calm - N/A   Clear
4:46 AM 77.0 °F - 71.6 °F 83% 29.82 in 8.0 mi Calm Calm - N/A   Clear
5:48 AM 77.0 °F - 71.6 °F 83% 29.83 in 8.0 mi Calm Calm - N/A   Clear
6:45 AM 77.0 °F - 71.6 °F 83% 29.83 in 8.0 mi Calm Calm - N/A   Scattered Clouds
7:44 AM 77.0 °F - 71.6 °F 83% 29.85 in 8.0 mi Calm Calm - N/A   Mostly Cloudy
8:47 AM 78.8 °F - 71.6 °F 78% 29.89 in 8.0 mi Calm Calm - N/A   Mostly Cloudy
8:50 AM 78 °F - 71 °F 75% 29.89 in 12 mi NNE 2.2 mph - -   Scattered Clouds
9:46 AM 80.6 °F 83.9 °F 69.8 °F 70% 29.89 in 8.0 mi Calm Calm - N/A   Mostly Cloudy
10:47 AM 84.2 °F 92.3 °F 75.2 °F 74% 29.87 in 8.0 mi Calm Calm - N/A   Mostly Cloudy
11:44 AM 87.8 °F 92.6 °F 69.8 °F 55% 29.86 in 8.0 mi Calm Calm - N/A   Mostly Cloudy
11:50 AM 87 °F - 72 °F 54% 29.83 in 12 mi NE 4.5 mph - -   Scattered Clouds
12:44 PM 89.6 °F 94.7 °F 69.8 °F 52% 29.83 in 8.0 mi WSW 8.1 mph - N/A   Mostly Cloudy
1:43 PM 89.6 °F 94.7 °F 69.8 °F 52% 29.81 in 10.0 mi WSW 9.2 mph - N/A   Scattered Clouds
2:43 PM 89.6 °F 96.2 °F 71.6 °F 55% 29.82 in 10.0 mi WSW 9.2 mph - N/A   Mostly Cloudy
2:50 PM 87 °F - 75 °F 61% 29.80 in 12 mi WSW 8.9 mph - -   Scattered Clouds
3:41 PM 89.6 °F 96.2 °F 71.6 °F 55% 29.78 in 10.0 mi WSW 9.2 mph - N/A   Scattered Clouds
4:45 PM 89.6 °F 96.2 °F 71.6 °F 55% 29.78 in 10.0 mi WSW 9.2 mph - N/A   Scattered Clouds
5:43 PM 86.0 °F 93.4 °F 73.4 °F 66% 29.78 in 10.0 mi West 9.2 mph - N/A   Clear
5:50 PM 85 °F - 72 °F 58% 29.79 in 12 mi SW 6.7 mph - -   Scattered Clouds
6:43 PM 84.2 °F 92.3 °F 75.2 °F 74% 29.79 in 8.0 mi West 5.8 mph - N/A   Clear
7:43 PM 82.4 °F 89.5 °F 75.2 °F 79% 29.81 in 8.0 mi West 5.8 mph - N/A   Clear
8:45 PM 82.4 °F 89.5 °F 75.2 °F 79% 29.79 in 8.0 mi Calm Calm - N/A   Clear
8:50 PM 81 °F - 75 °F 78% 29.85 in 6 mi West 2.2 mph - -   Clear
9:43 PM 82.4 °F 89.5 °F 75.2 °F 79% 29.83 in 8.0 mi Calm Calm - N/A   Clear
10:45 PM 82.4 °F 89.5 °F 75.2 °F 79% 29.85 in 8.0 mi Calm Calm - N/A   Clear
11:45 PM 80.6 °F 85.4 °F 73.4 °F 79% 29.88 in 8.0 mi Calm Calm - N/A   Clear
11:50 PM 76 °F - 73 °F 88% 29.86 in 6 mi WNW 2.2 mph - -   Clear